This demonstration page uses our WeatherBlox Daily Observations layout. Learn more.

Left ArrowRight Arrow

31.84235, -102.49876

Hourly Observations for November 9, 2015

Temp ( °F °C ) Dew Point ( °F °C ) Humidity (%) Winds ( mph kmh ) Pressure ( in mb ) Visibility ( mi km ) Precip ( " mm )
12:53 am 00:53 Clear 51 10.6 40 4.4 66 66 SSE 6 9 30.07 1018 10 16 0.00 0.00
1:53 am 01:53 Clear 50 10 41 5 71 71 SSE 5 7 30.05 1018 10 16 0.00 0.00
2:53 am 02:53 Clear 49 9.4 41 5 74 74 S 6 9 30.04 1017 10 16 0.00 0.00
3:53 am 03:53 Clear 48 8.9 41 5 77 77 S 3 6 30.04 1017 10 16 0.00 0.00
4:53 am 04:53 Clear 47 8.3 41 5 80 80 S 6 9 30.03 1017 10 16 0.00 0.00
5:53 am 05:53 Clear 48 8.9 42 5.6 80 80 SSW 7 11 30.03 1017 10 16 0.00 0.00
6:53 am 06:53 Clear 48 8.9 43 6.1 83 83 SSW 8 13 30.03 1017 10 16 0.00 0.00
7:53 am 07:53 Sunny 50 10 45 7.2 83 83 SSW 8 13 30.05 1018 10 16 0.00 0.00
8:53 am 08:53 Sunny 55 12.8 48 8.9 77 77 SSW 13 20 30.06 1018 10 16 0.00 0.00
9:53 am 09:53 Sunny 60 15.6 49 9.4 67 67 SSW 12 19 30.06 1018 10 16 0.00 0.00
10:53 am 10:53 Sunny 63 17.2 49 9.4 60 60 S 12 19 30.04 1017 10 16 0.00 0.00
11:53 am 11:53 Sunny 67 19.4 49 9.4 53 53 SSW 10 17 30.02 1017 10 16 0.00 0.00
12:53 pm 12:53 Sunny 70 21.1 49 9.4 47 47 SSW 9 15 29.98 1015 10 16 0.00 0.00
1:53 pm 13:53 Sunny 73 22.8 48 8.9 41 41 SSW 10 17 29.95 1014 10 16 0.00 0.00
2:53 pm 14:53 Sunny 74 23.3 47 8.3 38 38 S 10 17 29.93 1014 10 16 0.00 0.00
3:53 pm 15:53 Sunny 74 23.3 48 8.9 40 40 S 8 13 29.93 1013 10 16 0.00 0.00
4:53 pm 16:53 Sunny 74 23.3 46 7.8 37 37 SSW 10 17 29.92 1013 10 16 0.00 0.00
5:53 pm 17:53 Sunny 69 20.6 47 8.3 45 45 S 8 13 29.92 1013 10 16 0.00 0.00
6:53 pm 18:53 Clear 66 18.9 50 10 56 56 S 9 15 29.94 1014 10 16 0.00 0.00
7:53 pm 19:53 Clear 63 17.2 52 11.1 68 68 S 13 20 29.96 1015 10 16 0.00 0.00
8:53 pm 20:53 Clear 61 16.1 53 11.7 75 75 S 13 20 29.97 1015 10 16 0.00 0.00
9:53 pm 21:53 Clear 59 15 53 11.7 81 81 S 9 15 29.97 1015 8 13 0.00 0.00
10:53 pm 22:53 Clear with Mist and Fog 57 13.9 53 11.7 87 87 S 9 15 29.97 1015 6 10 0.00 0.00
11:53 pm 23:53 Clear with Mist and Fog 56 13.3 52 11.1 87 87 S 8 13 29.96 1015 5 8 0.00 0.00

Powered by AerisWeather